Location: Cactus School
(34.5700°N, 118.0931°W)
Time: 11:19:23
(UTC-08:00)

Tiangong 1 - Pass Details

Date: 11 November 2017
Orbit: 286 x 309 km, 42.8° (Epoch: 17 November)

Event Time Altitude Azimuth Distance (km) Brightness Sun altitude
Exits shadow 04:42:15 18° 42° (NE) 818 3.1 -20.8°
Drops below altitude 10° 04:43:29 10° 68° (ENE) 1,144 4.3 -20.5°
Sets 04:45:42 0° 86° (E) 1,969 6.1 -20.1°
